Погода в Аштараке

Армения     40°17′52″N   44°21′42″E
темп.,
°C
ветер,
м/с
пор.,
м/с
влажн.,
%
обл.,
%
осадки,
мм/ч
давл.,
гПа
погр.,
м
6 мая, чт
чт601:00+12с237797 0.3 1014116
04:00+10с118029 0.4 101418
07:00+11св227132 0.0 101468
10:00+14юв2159100 0.0 1014833
13:00+18ю22460 0.0 10121354
16:00+20ююз22381 0.0 10091458
19:00+20ююв1246100 0.0 100966
22:00+16ссв3351100 0.0 101024
7 мая, пт
пт701:00+16с3351100 0.1 101062
04:00+14св2258100 0.1 101035
07:00+14ссв116599 0.3 101248
10:00+17юз0150100 0.7 1012960
13:00+20зюз2141100 0.4 10111966
16:00+17всв4659100 1.1 1012341
19:00+16ююз336450 0.4 1013198
22:00+14с226626 0.6 101516
8 мая, сб
сб801:00+13ссв22632 0.0 101618
04:00+11св226716 0.0 101714
07:00+13ссв11661 0.0 101830
10:00+17ю21491 0.0 1017909
13:00+21ююв22455 0.0 10151460
16:00+23ююв22363 0.0 10131464
19:00+22ююв22435 0.0 101259
22:00+17ссв22505 0.0 101313
9 мая, вс
вс901:00+16ссв33500 0.1 101325
04:00+14ссв11565 0.1 101312
07:00+16св2255100 0.0 101318
10:00+21юв234232 0.0 1011957
13:00+24ююв24350 0.0 10081657
16:00+19ссз675994 1.1 1006506
19:00+17зсз61068100 3.9 10111070
22:00+12ююв1194100 12.4 1014246
10 мая, пн
пн1001:00+12ююв228936 0.1 101257
04:00+11вюв129173 0.3 1012110
07:00+9в138484 0.4 1014372
10:00+11в546220 0.5 1016796
13:00+16ююз35284 0.0 10141800
16:00+18зюз2523100 0.0 10122004
19:00+16ююв2336100 0.0 1012121
22:00+11св574711 0.0 1014140